HST 1 20580U 90037B 25123.02389578 .00010433 00000-0 40013-3 0 9991 2 20580 28.4692 350.9378 0002052 318.9685 41.0754 15.24803224726043 ISS (ZARYA) 1 25544U 98067A 25123.39976278 .00012717 00000-0 23598-3 0 9992 2 25544 51.6365 168.8960 0002156 81.8387 12.2253 15.49318505508217 CXO 1 25867U 99040B 25124.47797547 .00000650 00000-0 00000-0 0 9995 2 25867 48.5990 131.7302 8493358 308.8609 359.7335 0.37807267 15771